| time (UTC) | temp F | wind direction | speed MPH | gust MPH | rain 1hr in | rain 24hr in | rain mn in | humidity % | barometer mb |
| 20260503191141 | 59 | 216 | 3.0 | 7.0 | 0.00 | 0.00 | 0.00 | 52 | 1018.5 |
| 20260503190637 | 58 | 206 | 3.0 | 10.0 | 0.00 | 0.00 | 0.00 | 51 | 1018.5 |
| 20260503190134 | 58 | 189 | 3.0 | 6.0 | 0.00 | 0.00 | 0.00 | 49 | 1018.6 |
| 20260503185631 | 57 | 229 | 5.0 | 11.0 | 0.00 | 0.00 | 0.00 | 50 | 1018.9 |
| 20260503185126 | 58 | 262 | 3.0 | 7.0 | 0.00 | 0.00 | 0.00 | 47 | 1018.7 |
| 20260503184621 | 58 | 282 | 3.0 | 5.0 | 0.00 | 0.00 | 0.00 | 49 | 1019.0 |
| 20260503184118 | 57 | 151 | 4.0 | 7.0 | 0.00 | 0.00 | 0.00 | 50 | 1018.8 |
| 20260503183615 | 58 | 215 | 9.0 | 11.0 | 0.00 | 0.00 | 0.00 | 47 | 1019.0 |
| 20260503183112 | 57 | 262 | 4.0 | 8.0 | 0.00 | 0.00 | 0.00 | 47 | 1019.2 |
| 20260503182610 | 57 | 290 | 5.0 | 6.0 | 0.00 | 0.00 | 0.00 | 48 | 1019.3 |
| 20260503182108 | 57 | 258 | 5.0 | 8.0 | 0.00 | 0.00 | 0.00 | 45 | 1019.5 |
| 20260503181605 | 58 | 173 | 3.0 | 7.0 | 0.00 | 0.00 | 0.00 | 48 | 1019.2 |
| 20260503181101 | 57 | 286 | 4.0 | 5.0 | 0.00 | 0.00 | 0.00 | 47 | 1019.4 |
| 20260503180559 | 56 | 279 | 4.0 | 6.0 | 0.00 | 0.00 | 0.00 | 50 | 1019.7 |
| 20260503180056 | 57 | 208 | 7.0 | 10.0 | 0.00 | 0.00 | 0.00 | 46 | 1019.5 |
| 20260503175553 | 56 | 262 | 4.0 | 8.0 | 0.00 | 0.00 | 0.00 | 47 | 1019.6 |
| 20260503175050 | 57 | 272 | 5.0 | 7.0 | 0.00 | 0.00 | 0.00 | 48 | 1019.6 |
| 20260503174547 | 56 | 91 | 3.0 | 7.0 | 0.00 | 0.00 | 0.00 | 48 | 1019.5 |
| 20260503174044 | 55 | 305 | 6.0 | 8.0 | 0.00 | 0.00 | 0.00 | 48 | 1019.5 |
| 20260503173539 | 55 | 171 | 0.0 | 5.0 | 0.00 | 0.00 | 0.00 | 47 | 1019.9 |
| 20260503173035 | 55 | 218 | 6.0 | 10.0 | 0.00 | 0.00 | 0.00 | 49 | 1020.1 |
| 20260503172533 | 55 | 257 | 9.0 | 11.0 | 0.00 | 0.00 | 0.00 | 49 | 1020.2 |
| 20260503172030 | 55 | 121 | 3.0 | 5.0 | 0.00 | 0.00 | 0.00 | 51 | 1020.1 |
| 20260503171526 | 55 | 168 | 5.0 | 6.0 | 0.00 | 0.00 | 0.00 | 48 | 1020.1 |
| 20260503171024 | 55 | 271 | 4.0 | 6.0 | 0.00 | 0.00 | 0.00 | 49 | 1020.5 |
| 20260503170520 | 54 | 99 | 0.0 | 3.0 | 0.00 | 0.00 | 0.00 | 48 | 1020.3 |
| 20260503150912 | 51 | 183 | 3.0 | 3.0 | 0.00 | 0.00 | 0.00 | 48 | 1021.8 |
| 20260503150409 | 52 | 232 | 2.0 | 3.0 | 0.00 | 0.00 | 0.00 | 49 | 1021.8 |
| 20260503131302 | 46 | 125 | 0.0 | 2.0 | 0.00 | 0.00 | 0.00 | 78 | 1021.7 |
| 20260503130759 | 46 | 93 | 0.0 | 2.0 | 0.00 | 0.00 | 0.00 | 77 | 1021.7 |
| 20260503130257 | 45 | 132 | 0.0 | 1.0 | 0.00 | 0.00 | 0.00 | 80 | 1021.5 |
| 20260503110650 | 33 | 125 | 0.0 | 0.0 | 0.00 | 0.00 | 0.00 | 99 | 1020.8 |
| 20260503110148 | 33 | 125 | 0.0 | 0.0 | 0.00 | 0.00 | 0.00 | 99 | 1020.3 |
| 20260503100114 | 34 | 101 | 0.0 | 0.0 | 0.00 | 0.00 | 0.00 | 99 | 1019.9 |
| 20260503081504 | 37 | 120 | 0.0 | 0.0 | 0.00 | 0.00 | 0.00 | 94 | 1019.4 |
| 20260503081001 | 37 | 120 | 0.0 | 0.0 | 0.00 | 0.00 | 0.00 | 94 | 1019.4 |
| 20260503080457 | 37 | 110 | 0.0 | 0.0 | 0.00 | 0.00 | 0.00 | 95 | 1019.5 |
| 20260503072933 | 39 | 115 | 1.0 | 1.0 | 0.00 | 0.00 | 0.00 | 95 | 1019.5 |
| 20260503072431 | 39 | 85 | 1.0 | 2.0 | 0.00 | 0.00 | 0.00 | 95 | 1019.2 |
| 20260503071928 | 39 | 11 | 3.0 | 3.0 | 0.00 | 0.00 | 0.00 | 95 | 1019.1 |
| 20260503071425 | 39 | 49 | 1.0 | 5.0 | 0.00 | 0.00 | 0.00 | 94 | 1019.1 |
| 20260503070921 | 39 | 32 | 2.0 | 5.0 | 0.00 | 0.00 | 0.00 | 94 | 1018.9 |
| 20260503070418 | 40 | 36 | 3.0 | 3.0 | 0.00 | 0.00 | 0.00 | 95 | 1018.9 |
| 20260503054832 | 41 | 74 | 1.0 | 2.0 | 0.00 | 0.00 | 0.00 | 89 | 1018.4 |
| 20260503054327 | 41 | 65 | 1.0 | 1.0 | 0.00 | 0.00 | 0.00 | 90 | 1018.5 |
| 20260503053826 | 41 | 88 | 1.0 | 1.0 | 0.00 | 0.00 | 0.00 | 89 | 1018.6 |
| 20260503053324 | 41 | 103 | 0.0 | 0.0 | 0.00 | 0.00 | 0.00 | 89 | 1018.6 |
| 20260503052820 | 41 | 126 | 0.0 | 0.0 | 0.00 | 0.00 | 0.00 | 88 | 1018.5 |
| 20260503052317 | 41 | 121 | 0.0 | 1.0 | 0.00 | 0.00 | 0.00 | 87 | 1018.7 |
| 20260503051812 | 41 | 134 | 0.0 | 0.0 | 0.00 | 0.00 | 0.00 | 86 | 1018.8 |
| 20260503051309 | 41 | 131 | 0.0 | 1.0 | 0.00 | 0.00 | 0.00 | 86 | 1018.7 |
| 20260503050806 | 42 | 107 | 0.0 | 0.0 | 0.00 | 0.00 | 0.00 | 86 | 1018.4 |
| 20260503050302 | 42 | 110 | 0.0 | 0.0 | 0.00 | 0.00 | 0.00 | 85 | 1018.5 |
| 20260503045800 | 42 | 105 | 0.0 | 1.0 | 0.00 | 0.00 | 0.00 | 84 | 1018.8 |
| 20260503045258 | 42 | 65 | 1.0 | 1.0 | 0.00 | 0.00 | 0.00 | 84 | 1018.5 |
| 20260503044753 | 42 | 133 | 0.0 | 1.0 | 0.00 | 0.00 | 0.00 | 83 | 1018.4 |
| 20260503044251 | 42 | 117 | 0.0 | 1.0 | 0.00 | 0.00 | 0.00 | 82 | 1018.4 |
| 20260503043748 | 42 | 105 | 0.0 | 1.0 | 0.00 | 0.00 | 0.00 | 82 | 1018.2 |
| 20260503043245 | 42 | 130 | 0.0 | 2.0 | 0.00 | 0.00 | 0.00 | 82 | 1018.5 |
| 20260503042741 | 43 | 144 | 1.0 | 2.0 | 0.00 | 0.00 | 0.00 | 82 | 1018.3 |
| 20260503042238 | 43 | 132 | 1.0 | 1.0 | 0.00 | 0.00 | 0.00 | 81 | 1018.5 |
| 20260503041733 | 43 | 147 | 0.0 | 0.0 | 0.00 | 0.00 | 0.00 | 81 | 1018.2 |
| 20260503041232 | 43 | 136 | 0.0 | 1.0 | 0.00 | 0.00 | 0.00 | 81 | 1018.1 |
| 20260503040729 | 43 | 134 | 0.0 | 0.0 | 0.00 | 0.00 | 0.00 | 81 | 1018.1 |
| 20260503040227 | 43 | 123 | 1.0 | 2.0 | 0.00 | 0.00 | 0.00 | 81 | 1018.0 |
| 20260503035723 | 43 | 150 | 0.0 | 1.0 | 0.00 | 0.00 | 0.00 | 81 | 1018.2 |
| 20260503035221 | 43 | 137 | 0.0 | 0.0 | 0.00 | 0.00 | 0.00 | 80 | 1018.1 |
| 20260503034718 | 44 | 130 | 0.0 | 0.0 | 0.00 | 0.00 | 0.00 | 79 | 1018.0 |
| 20260503034215 | 44 | 163 | 0.0 | 1.0 | 0.00 | 0.00 | 0.00 | 79 | 1018.0 |
| 20260503033712 | 44 | 187 | 1.0 | 1.0 | 0.00 | 0.00 | 0.00 | 78 | 1017.9 |
| 20260503033209 | 44 | 128 | 0.0 | 0.0 | 0.00 | 0.00 | 0.00 | 79 | 1017.9 |
| 20260503032708 | 44 | 146 | 0.0 | 0.0 | 0.00 | 0.00 | 0.00 | 79 | 1017.8 |
| 20260503032206 | 44 | 136 | 0.0 | 0.0 | 0.00 | 0.00 | 0.00 | 79 | 1018.0 |
| 20260503031702 | 45 | 135 | 1.0 | 2.0 | 0.00 | 0.00 | 0.00 | 78 | 1018.2 |
| 20260503031201 | 45 | 117 | 0.0 | 1.0 | 0.00 | 0.00 | 0.00 | 78 | 1017.8 |
| 20260503030656 | 45 | 134 | 0.0 | 1.0 | 0.00 | 0.00 | 0.00 | 77 | 1018.1 |
| 20260503030153 | 46 | 110 | 0.0 | 1.0 | 0.00 | 0.00 | 0.00 | 76 | 1017.9 |
| 20260503025650 | 46 | 116 | 0.0 | 0.0 | 0.00 | 0.00 | 0.00 | 76 | 1018.0 |
| 20260503025148 | 46 | 239 | 1.0 | 2.0 | 0.00 | 0.00 | 0.00 | 75 | 1017.9 |
| 20260503024644 | 46 | 108 | 1.0 | 1.0 | 0.00 | 0.00 | 0.00 | 75 | 1018.1 |
| 20260503024142 | 46 | 131 | 1.0 | 3.0 | 0.00 | 0.00 | 0.00 | 74 | 1017.9 |
| 20260503023639 | 47 | 207 | 1.0 | 1.0 | 0.00 | 0.00 | 0.00 | 74 | 1017.9 |
| 20260503023136 | 47 | 69 | 1.0 | 1.0 | 0.00 | 0.00 | 0.00 | 73 | 1018.0 |
| 20260503022632 | 47 | 203 | 1.0 | 2.0 | 0.00 | 0.00 | 0.00 | 73 | 1017.6 |
| 20260503022132 | 47 | 298 | 3.0 | 5.0 | 0.00 | 0.00 | 0.00 | 72 | 1017.7 |
| 20260503021629 | 47 | 346 | 1.0 | 2.0 | 0.00 | 0.00 | 0.00 | 73 | 1017.7 |
| 20260503021125 | 47 | 136 | 1.0 | 3.0 | 0.00 | 0.00 | 0.00 | 72 | 1017.7 |
| 20260503020622 | 47 | 75 | 1.0 | 3.0 | 0.00 | 0.00 | 0.00 | 73 | 1017.6 |
| 20260503020120 | 47 | 31 | 2.0 | 3.0 | 0.00 | 0.00 | 0.00 | 73 | 1017.5 |
| 20260503015616 | 47 | 37 | 3.0 | 3.0 | 0.00 | 0.00 | 0.00 | 74 | 1017.5 |
| 20260503015114 | 47 | 131 | 0.0 | 0.0 | 0.00 | 0.00 | 0.00 | 75 | 1017.5 |
| 20260503014609 | 47 | 139 | 0.0 | 1.0 | 0.00 | 0.00 | 0.00 | 74 | 1017.3 |
| 20260503014107 | 47 | 236 | 2.0 | 3.0 | 0.00 | 0.00 | 0.00 | 74 | 1017.6 |
| 20260503013604 | 47 | 50 | 0.0 | 1.0 | 0.00 | 0.00 | 0.00 | 76 | 1017.1 |
| 20260503013102 | 47 | 196 | 0.0 | 0.0 | 0.00 | 0.00 | 0.00 | 76 | 1017.0 |
| 20260503012559 | 47 | 175 | 1.0 | 2.0 | 0.00 | 0.00 | 0.00 | 74 | 1017.4 |
| 20260503012056 | 47 | 274 | 0.0 | 0.0 | 0.00 | 0.00 | 0.00 | 76 | 1016.8 |
| 20260503011552 | 48 | 274 | 0.0 | 0.0 | 0.00 | 0.00 | 0.00 | 73 | 1016.6 |
| 20260503011050 | 48 | 274 | 0.0 | 0.0 | 0.00 | 0.00 | 0.00 | 73 | 1016.6 |
| 20260503010545 | 48 | 274 | 0.0 | 0.0 | 0.00 | 0.00 | 0.00 | 73 | 1016.7 |
| 20260503010043 | 48 | 274 | 0.0 | 0.0 | 0.00 | 0.00 | 0.00 | 73 | 1016.5 |
| 20260503005540 | 48 | 274 | 0.0 | 0.0 | 0.00 | 0.00 | 0.00 | 71 | 1016.6 |
| 20260503005038 | 48 | 274 | 0.0 | 0.0 | 0.00 | 0.00 | 0.00 | 72 | 1016.5 |
| 20260503004533 | 48 | 274 | 0.0 | 0.0 | 0.00 | 0.00 | 0.00 | 71 | 1016.6 |
| 20260503004032 | 48 | 274 | 0.0 | 0.0 | 0.00 | 0.00 | 0.00 | 70 | 1016.6 |
| 20260503003528 | 48 | 274 | 0.0 | 0.0 | 0.00 | 0.00 | 0.00 | 69 | 1016.4 |
| 20260503003025 | 48 | 274 | 1.0 | 1.0 | 0.00 | 0.00 | 0.00 | 68 | 1016.6 |
| 20260503002522 | 48 | 129 | 1.0 | 1.0 | 0.00 | 0.00 | 0.00 | 67 | 1016.2 |
| 20260503002019 | 49 | 97 | 0.0 | 1.0 | 0.00 | 0.00 | 0.00 | 67 | 1016.1 |
| 20260503001515 | 49 | 166 | 1.0 | 1.0 | 0.00 | 0.00 | 0.00 | 65 | 1016.2 |
| 20260503001013 | 49 | 152 | 0.0 | 0.0 | 0.00 | 0.00 | 0.00 | 66 | 1016.0 |
| 20260503000510 | 50 | 135 | 0.0 | 1.0 | 0.00 | 0.00 | 0.00 | 65 | 1016.1 |
| 20260503000007 | 50 | 120 | 1.0 | 1.0 | 0.00 | 0.00 | 0.00 | 64 | 1015.9 |
| 20260502235503 | 50 | 162 | 1.0 | 1.0 | 0.00 | 0.00 | 0.00 | 63 | 1016.0 |
| 20260502235001 | 51 | 58 | 2.0 | 3.0 | 0.00 | 0.00 | 0.00 | 61 | 1016.0 |
| 20260502234457 | 52 | 130 | 0.0 | 1.0 | 0.00 | 0.00 | 0.00 | 62 | 1015.9 |
| 20260502233956 | 53 | 87 | 1.0 | 2.0 | 0.00 | 0.00 | 0.00 | 60 | 1016.0 |
| 20260502233456 | 53 | 127 | 2.0 | 3.0 | 0.00 | 0.00 | 0.00 | 60 | 1015.7 |
| 20260502232953 | 53 | 162 | 0.0 | 2.0 | 0.00 | 0.00 | 0.00 | 60 | 1015.7 |
| 20260502232449 | 52 | 166 | 2.0 | 3.0 | 0.00 | 0.00 | 0.00 | 61 | 1015.9 |
| 20260502231946 | 51 | 0 | 1.0 | 5.0 | 0.00 | 0.00 | 0.00 | 62 | 1015.7 |
| 20260502231443 | 52 | 348 | 3.0 | 5.0 | 0.00 | 0.00 | 0.00 | 61 | 1015.5 |
| 20260502230942 | 52 | 193 | 3.0 | 5.0 | 0.00 | 0.00 | 0.00 | 61 | 1015.8 |
| 20260502230439 | 52 | 313 | 3.0 | 6.0 | 0.00 | 0.00 | 0.00 | 62 | 1015.8 |
| 20260502225937 | 52 | 289 | 1.0 | 5.0 | 0.00 | 0.00 | 0.00 | 61 | 1015.8 |
| 20260502225433 | 53 | 315 | 2.0 | 2.0 | 0.00 | 0.00 | 0.00 | 60 | 1015.8 |
| 20260502224930 | 53 | 112 | 1.0 | 5.0 | 0.00 | 0.00 | 0.00 | 59 | 1015.8 |
| 20260502224426 | 53 | 242 | 2.0 | 3.0 | 0.00 | 0.00 | 0.00 | 61 | 1015.9 |
| 20260502223923 | 53 | 45 | 2.0 | 6.0 | 0.00 | 0.00 | 0.00 | 61 | 1015.6 |
| 20260502223421 | 53 | 42 | 2.0 | 3.0 | 0.00 | 0.00 | 0.00 | 61 | 1015.7 |
| 20260502222919 | 53 | 86 | 2.0 | 6.0 | 0.00 | 0.00 | 0.00 | 62 | 1015.7 |
| 20260502222416 | 53 | 18 | 3.0 | 9.0 | 0.00 | 0.00 | 0.00 | 60 | 1015.9 |
| 20260502221916 | 54 | 7 | 3.0 | 6.0 | 0.00 | 0.00 | 0.00 | 60 | 1015.8 |
| 20260502221413 | 53 | 1 | 3.0 | 7.0 | 0.00 | 0.00 | 0.00 | 61 | 1015.7 |
| 20260502220910 | 53 | 246 | 3.0 | 9.0 | 0.00 | 0.00 | 0.00 | 62 | 1015.6 |
| 20260502220406 | 53 | 349 | 3.0 | 10.0 | 0.00 | 0.00 | 0.00 | 61 | 1015.7 |
| 20260502215903 | 53 | 95 | 2.0 | 6.0 | 0.00 | 0.00 | 0.00 | 61 | 1015.7 |
| 20260502215401 | 54 | 25 | 7.0 | 11.0 | 0.00 | 0.00 | 0.00 | 60 | 1015.6 |
| 20260502214857 | 54 | 48 | 4.0 | 7.0 | 0.00 | 0.00 | 0.00 | 61 | 1015.7 |
| 20260502214354 | 53 | 103 | 3.0 | 8.0 | 0.00 | 0.00 | 0.00 | 62 | 1016.0 |
| 20260502213851 | 53 | 49 | 6.0 | 8.0 | 0.00 | 0.00 | 0.00 | 62 | 1015.9 |
| 20260502213348 | 52 | 334 | 5.0 | 7.0 | 0.00 | 0.00 | 0.00 | 65 | 1015.9 |
| 20260502212847 | 51 | 28 | 2.0 | 7.0 | 0.00 | 0.00 | 0.00 | 65 | 1015.7 |
| 20260502212345 | 51 | 12 | 5.0 | 8.0 | 0.00 | 0.00 | 0.00 | 64 | 1016.0 |
| 20260502211842 | 51 | 349 | 3.0 | 5.0 | 0.00 | 0.00 | 0.00 | 67 | 1015.9 |
| 20260502211337 | 51 | 186 | 3.0 | 3.0 | 0.00 | 0.00 | 0.00 | 68 | 1015.9 |
| 20260502210835 | 51 | 185 | 1.0 | 3.0 | 0.00 | 0.00 | 0.00 | 69 | 1016.0 |
| 20260502210332 | 50 | 116 | 2.0 | 3.0 | 0.00 | 0.00 | 0.00 | 68 | 1015.9 |
| 20260502205829 | 50 | 281 | 3.0 | 6.0 | 0.00 | 0.00 | 0.00 | 65 | 1016.1 |
| 20260502205325 | 51 | 288 | 5.0 | 9.0 | 0.00 | 0.00 | 0.00 | 65 | 1016.0 |
| 20260502204822 | 52 | 286 | 7.0 | 10.0 | 0.00 | 0.00 | 0.00 | 62 | 1016.1 |
| 20260502204320 | 52 | 318 | 4.0 | 9.0 | 0.00 | 0.00 | 0.00 | 60 | 1015.8 |
| 20260502203817 | 53 | 331 | 6.0 | 9.0 | 0.00 | 0.00 | 0.00 | 58 | 1015.8 |
| 20260502203315 | 53 | 267 | 6.0 | 8.0 | 0.00 | 0.00 | 0.00 | 56 | 1015.7 |
| 20260502202815 | 53 | 204 | 3.0 | 10.0 | 0.00 | 0.00 | 0.00 | 58 | 1015.6 |
| 20260502202313 | 53 | 232 | 3.0 | 5.0 | 0.00 | 0.00 | 0.00 | 58 | 1015.9 |
| 20260502201810 | 53 | 257 | 5.0 | 7.0 | 0.00 | 0.00 | 0.00 | 57 | 1015.7 |
| 20260502201306 | 53 | 119 | 2.0 | 2.0 | 0.00 | 0.00 | 0.00 | 59 | 1015.8 |
| 20260502200803 | 53 | 261 | 2.0 | 6.0 | 0.00 | 0.00 | 0.00 | 59 | 1015.8 |
| 20260502200258 | 53 | 293 | 3.0 | 6.0 | 0.00 | 0.00 | 0.00 | 59 | 1015.9 |
| 20260502195757 | 53 | 358 | 4.0 | 7.0 | 0.00 | 0.00 | 0.00 | 59 | 1015.7 |
| 20260502195253 | 53 | 253 | 3.0 | 5.0 | 0.00 | 0.00 | 0.00 | 59 | 1015.8 |
| 20260502194750 | 53 | 63 | 2.0 | 7.0 | 0.00 | 0.00 | 0.00 | 59 | 1015.8 |
| 20260502194247 | 54 | 165 | 2.0 | 6.0 | 0.00 | 0.00 | 0.00 | 57 | 1015.9 |
| 20260502193743 | 54 | 334 | 1.0 | 5.0 | 0.00 | 0.00 | 0.00 | 57 | 1016.0 |
| 20260502193240 | 54 | 83 | 3.0 | 6.0 | 0.00 | 0.00 | 0.00 | 59 | 1015.8 |
| 20260502192740 | 54 | 334 | 6.0 | 9.0 | 0.00 | 0.00 | 0.00 | 57 | 1015.7 |
| 20260502192238 | 54 | 47 | 2.0 | 6.0 | 0.00 | 0.00 | 0.00 | 58 | 1015.8 |
| 20260502191735 | 55 | 26 | 5.0 | 9.0 | 0.00 | 0.00 | 0.00 | 56 | 1015.8 |